Klawock, AK

7:03 PM AKDT on October 17, 2017 (GMT -0800)
Klawock

Weather History for PAKW - September, 2012

Change the Weather History Date:

Wednesday, September 5, 2012

  Actual Average Record
Temperature  
Mean Temperature 52 °F -  
Max Temperature 60 °F 58 °F 82 °F (2017)
Min Temperature 44 °F 46 °F 39 °F (1998)
Degree Days  
Heating Degree Days 14    
Growing Degree Days 2 (Base 50)    
Moisture  
Dew Point 48 °F    
Average Humidity 92    
Maximum Humidity 100    
Minimum Humidity 67    
Precipitation  
Precipitation 0.04 in - - ()
Sea Level Pressure  
Sea Level Pressure 30.30 in    
Wind  
Wind Speed 0 mph (SW)    
Max Wind Speed 6 mph    
Max Gust Speed -    
Visibility 6 miles    
Events Rain    
Averages and records for this station are not official NWS values.
T = Trace of Precipitation, MM = Missing Value Source: NWS Daily Summary

Daily Weather History Graph

Daily Weather History Graph

Search for Another Location

Airport or City:

Trip Planner

Search our weather history database for the weather conditions in past years. The results will help you decide how hot, cold, wet, or windy it might be!

Date:

Astronomy

Sep. 05, 2012 Rise Set
Actual Time 6:06 AM AKDT 7:33 PM AKDT
Civil Twilight 5:28 AM AKDT 8:11 PM AKDT
Nautical Twilight 4:40 AM AKDT 8:58 PM AKDT
Astronomical Twilight 3:47 AM AKDT 9:51 PM AKDT
Moon 8:59 PM AKDT (9/5) 12:24 PM AKDT (9/5)
Length of Visible Light 14h 43m
Length of Day
13h 27m
Waning Gibbous, 75% of the Moon is Illuminated
Sep 5
Waning Gibbous
Sep 8
Last Quarter
Sep 15
New
Sep 22
First Quarter
Sep 29
Full

Hourly Weather History & Observations

Time (AKDT) Temp. Dew Point Humidity Pressure Visibility Wind Dir Wind Speed Gust Speed Precip Events Conditions
12:13 AM 48.2 °F 48.2 °F 100% 30.31 in 10.0 mi Calm Calm - N/A   Overcast
12:53 AM 48.0 °F 46.0 °F 93% 30.31 in 10.0 mi Calm Calm - N/A   Mostly Cloudy
1:53 AM 48.0 °F 46.9 °F 96% 30.31 in 10.0 mi Calm Calm - N/A   Mostly Cloudy
2:02 AM 46.4 °F 46.4 °F 100% 30.31 in 8.0 mi Calm Calm - N/A   Scattered Clouds
2:26 AM 46.4 °F 46.4 °F 100% 30.31 in 2.5 mi Calm Calm - N/A   Scattered Clouds
2:34 AM 46.4 °F 44.6 °F 93% 30.31 in 1.8 mi Calm Calm - N/A   Scattered Clouds
2:36 AM 46.4 °F 44.6 °F 93% 30.31 in 3.0 mi Calm Calm - N/A   Scattered Clouds
2:53 AM 46.9 °F 45.0 °F 93% 30.31 in 5.0 mi Calm Calm - N/A   Mostly Cloudy
2:56 AM 46.4 °F 44.6 °F 93% 30.31 in 1.5 mi Calm Calm - N/A   Mostly Cloudy
3:01 AM 46.4 °F 44.6 °F 93% 30.31 in 0.8 mi Calm Calm - N/A   Mostly Cloudy
3:07 AM 46.4 °F 46.4 °F 100% 30.32 in 1.5 mi Calm Calm - N/A   Mostly Cloudy
3:22 AM 46.4 °F 44.6 °F 93% 30.32 in 3.0 mi Calm Calm - N/A   Mostly Cloudy
3:36 AM 46.4 °F 44.6 °F 93% 30.32 in 5.0 mi Calm Calm - N/A   Scattered Clouds
3:50 AM 44.6 °F 44.6 °F 100% 30.32 in 1.8 mi Calm Calm - N/A   Scattered Clouds
3:53 AM 45.0 °F 44.1 °F 97% 30.32 in 1.2 mi Calm Calm - N/A   Scattered Clouds
4:01 AM 44.6 °F 44.6 °F 100% 30.32 in 1.0 mi Calm Calm - N/A   Mist
4:29 AM 46.4 °F 44.6 °F 93% 30.32 in 2.0 mi Calm Calm - N/A   Mostly Cloudy
4:40 AM 46.4 °F 44.6 °F 93% 30.32 in 9.0 mi Calm Calm - N/A   Mostly Cloudy
5:01 AM 44.6 °F 44.6 °F 100% 30.32 in 1.8 mi Calm Calm - N/A   Overcast
5:07 AM 44.6 °F 44.6 °F 100% 30.32 in 3.0 mi Calm Calm - N/A   Overcast
5:10 AM 46.4 °F 44.6 °F 93% 30.32 in 1.8 mi Calm Calm - N/A   Overcast
5:16 AM 44.6 °F 44.6 °F 100% 30.32 in 0.8 mi Calm Calm - N/A   Overcast
5:24 AM 44.6 °F 44.6 °F 100% 30.32 in 0.8 mi Calm Calm - N/A   Overcast
5:33 AM 46.4 °F 44.6 °F 93% 30.32 in 1.0 mi Calm Calm - N/A   Overcast
5:53 AM 44.1 °F 44.1 °F 100% 30.32 in 0.8 mi Calm Calm - N/A   Overcast
6:05 AM 44.6 °F 44.6 °F 100% 30.32 in 1.2 mi Calm Calm - 0.01 in   Overcast
6:08 AM 46.4 °F 44.6 °F 93% 30.32 in 2.0 mi Calm Calm - 0.01 in   Overcast
6:15 AM 46.4 °F 44.6 °F 93% 30.32 in 10.0 mi Calm Calm - 0.01 in   Overcast
6:53 AM 46.9 °F 46.0 °F 97% 30.32 in 10.0 mi Calm Calm - 0.01 in   Overcast
8:01 AM 48.2 °F 48.2 °F 100% 30.32 in 10.0 mi Calm Calm - N/A   Overcast
8:16 AM 50.0 °F 48.2 °F 94% 30.32 in 10.0 mi Calm Calm - N/A   Scattered Clouds
8:53 AM 52.0 °F 50.0 °F 93% 30.32 in 10.0 mi Calm Calm - N/A   Scattered Clouds
9:53 AM 55.0 °F 50.0 °F 83% 30.32 in 10.0 mi Calm Calm - N/A   Scattered Clouds
10:53 AM 55.9 °F 48.9 °F 77% 30.32 in 10.0 mi West 3.5 mph - N/A   Partly Cloudy
11:53 AM 59.0 °F 48.9 °F 69% 30.32 in 10.0 mi Variable 4.6 mph - N/A   Partly Cloudy
12:53 PM 59.0 °F 48.0 °F 67% 30.32 in 10.0 mi Calm Calm - N/A   Overcast
1:53 PM 59.0 °F 50.0 °F 72% 30.32 in 10.0 mi SSW 3.5 mph - N/A   Overcast
2:53 PM 59.0 °F 50.0 °F 72% 30.30 in 10.0 mi WSW 5.8 mph - N/A   Overcast
3:05 PM 57.2 °F 48.2 °F 72% 30.31 in 10.0 mi SW 5.8 mph - N/A   Overcast
3:53 PM 57.9 °F 50.0 °F 75% 30.30 in 10.0 mi SSW 4.6 mph - N/A   Overcast
4:53 PM 57.9 °F 50.0 °F 75% 30.29 in 10.0 mi Calm Calm - N/A   Overcast
5:53 PM 57.0 °F 51.1 °F 81% 30.27 in 10.0 mi Calm Calm - N/A   Overcast
6:53 PM 55.9 °F 51.1 °F 84% 30.27 in 10.0 mi Calm Calm - N/A   Overcast
7:53 PM 55.0 °F 52.0 °F 89% 30.27 in 10.0 mi West 4.6 mph - 0.00 in   Overcast
8:34 PM 55.4 °F 53.6 °F 94% 30.26 in 4.0 mi Calm Calm - N/A   Overcast
8:53 PM 54.0 °F 53.1 °F 97% 30.26 in 5.0 mi Calm Calm - N/A   Overcast
9:12 PM 53.6 °F 53.6 °F 100% 30.25 in 10.0 mi SW 3.5 mph - N/A   Overcast
9:53 PM 54.0 °F 53.1 °F 97% 30.25 in 10.0 mi Calm Calm - 0.00 in Rain Light Rain
10:53 PM 54.0 °F 54.0 °F 100% 30.26 in 2.0 mi SW 4.6 mph - 0.01 in   Overcast
11:18 PM 55.4 °F 53.6 °F 94% 30.26 in 2.0 mi SSW 3.5 mph - 0.01 in   Overcast
11:53 PM 55.0 °F 54.0 °F 96% 30.26 in 2.5 mi Calm Calm - 0.02 in Rain Light Rain